Weather in Alekseyeva

Russia / Bryansk Oblast     52°57′25″N   34°56′50″E
temp.,
°C
wind,
m/s
gust,
m/s
humid.,
%
clouds,
%
prec.,
mm/h
press.,
hPa
HPBL,
m
25 october, mon
mon2500:000nw49865 0.0 1028277
03:00−2nw38935 0.0 1030199
06:00−2nw359513 0.0 1031126
09:00−1nnw2384100 0.0 1032208
12:00+3wnw235884 0.0 1033714
15:00+4w34485 0.0 1032872
18:00+1wsw33655 0.0 103230
21:000sw35725 0.0 103278
26 october, tue
tue2600:00−1sw47755 0.0 1032129
03:00−1sw497667 0.0 1031181
06:00−1sw41075100 0.0 1030195
09:00+1sw5116596 0.0 1030287
12:00+5sw61050100 0.0 1029526
15:00+7sw6114993 0.0 1026668
18:00+3ssw412655 0.0 1026231
21:00+2ssw5146745 0.0 1026305
27 october, wed
wed2700:00+1ssw5137274 0.0 1026269
03:00+1ssw513755 0.0 1025240
06:000ssw512784 0.0 1024233
09:00+2ssw614725 0.0 1024349
12:00+7sw712633 0.0 1023645
15:00+9sw71166100 0.0 1022901
18:00+6wsw5118050 0.0 1023351
21:00+4wsw41090100 0.0 1023228
28 october, thu
thu2800:00+3wsw3984100 0.0 1023198
03:00+4wsw3988100 0.0 1024204
06:00+4sw499455 0.0 1023180
09:00+5sw5129165 0.0 1023354
12:00+8wsw6137799 0.0 1022521
15:00+9wsw61372100 0.0 1021647
18:00+9w61278100 0.0 1022497
21:00+9w51184100 0.0 1022523
29 october, fri
fri2900:00+8w4991100 0.0 1022379
03:00+8w4894100 0.4 1022316
06:00+8w3796100 0.5 1023271
09:00+8w3697100 0.7 1024232
12:00+9wnw2594100 0.0 1025229
15:00+11nw2490100 0.0 1026295
18:00+10n1195100 0.1 102713
21:00+9ene1195100 0.1 102713